Location: Grand Lay
(47.3253°N, 0.9468°E)
Time: 12:02:48
(UTC+00:00)

Landsat 7 - Pass Details

Date: 18 January 2026
Orbit: 680 x 682 km, 97.9° (Epoch: 16 February)

Event Time Altitude Azimuth Distance (km) Brightness Sun altitude
Rises 06:47:07 0° 10° (N) 3,054 7.0 -8.4°
Reaches altitude 10° 06:49:23 10° 7° (N) 2,133 6.2 -8.0°
Maximum altitude 06:53:58 60° 288° (WNW) 781 3.8 -7.3°
Drops below altitude 10° 06:58:32 10° 209° (SSW) 2,116 6.3 -6.6°
Sets 07:00:46 0° 205° (SSW) 3,026 7.1 -6.3°
